Simultaneous Nadir Overpasses (SNOs) Predictions

Prediction of SNOs between GOES-16 and METOP-B Satellite Orbit:

Table of predicted SNOs for the next 14.0 days since TLE Epoch: 5/25/2017
Index Date Time (GOES-16) GOES-16 Lat,Lon METOP-B Lat,Lon Distance(km) Time Diff (sec)
1 05/26/2017 03:32:54 0.00, -89.48 -0.12, -90.09 69.79 80
2 05/27/2017 03:09:34 -0.00, -89.48 0.95, -85.09 499.18 80
3 05/28/2017 15:28:25 0.01, -89.49 0.07, -89.65 19.85 80
4 05/31/2017 03:26:45 -0.01, -89.48 0.03, -89.26 25.46 80
5 06/01/2017 15:45:36 0.01, -89.50 0.99, -93.82 492.89 80
6 06/02/2017 15:27:37 0.01, -89.50 -0.15, -88.83 77.05 80
7 06/04/2017 03:46:36 -0.01, -89.51 -0.88, -93.42 445.81 80
8 06/05/2017 03:23:17 -0.01, -89.52 0.26, -88.44 124.24 80
9 06/06/2017 15:42:08 0.01, -89.54 0.76, -93.00 393.46 80
10 06/07/2017 15:24:07 0.01, -89.55 -0.32, -88.00 176.93 80




NCC Satellite Simultaneous Nadir Overpasses (SNOs) Prediction Service
